sat.trackr.live / text

‹ back to catalog

STARLINK-34348

NORAD 64152 · 2025-112G

PAYLOAD ACTIVE UNKNOWN

§ Identity

Operator
Country
US
Launch date
2025-05-27
Launch site
AFWTR
Launch vehicle
Mass (kg)
RCS (m²)

Purposes: comms

External: N2YO · Heavens-Above · Gunter

§ Orbital elements

Epoch: 2026-09-20T21:00:20.295360Z

Period
93.90 min
Inclination
97.2842°
Eccentricity
0.0004451
Mean motion
15.33487611 rev/d
Perigee alt
462.4 km
Apogee alt
468.5 km
Semi-major
6,843.6 km
B*
3.8992e-4
RAAN
310.9034°
Arg perigee
260.3906°
Mean anomaly
99.6834°
Rev number
7,280

§ Raw data

STARLINK-343481 64152U 25112G   26263.87523490  .00012554  00000+0  38992-3 0  99962 64152  97.2842 310.9034 0004451 260.3906  99.6834 15.33487611 72807

JSON: /api/v1/satellites/64152 · /tle

For live sub-satellite position, see the globe view (requires WebGL).

§ Visibility from observer

Set your observer location to see the next 7 days of passes ≥ 10°. The values pass through the URL so the page stays shareable.

No JS? Fill the form by hand. The geolocation button needs JavaScript.